Flight Track Log - Related Links

Times and Time Zones

All times are in EST time to prevent confusion due to time zone crossing. See the UCA3597 flight status page for this flight to view local times or setup timezone preferences in your user account.

Time Position Orientation Groundspeed Altitude Reporting Facility
EST Latitude Longitude Course Direction KTS MPH feet Rate Location/Type
Wed 05:54:00 PM 39.4568 -77.2385 19° North  Level Estimated
Wed 05:55:00 PM 39.5296 -77.2066 19° North  Level Estimated
Wed 05:56:00 PM 39.6023 -77.1747 19° North  Level Estimated
Wed 05:57:00 PM 39.6750 -77.1426 19° North  Level Estimated
Wed 05:58:00 PM 39.7477 -77.1105 19° North  Level Estimated
Wed 05:59:00 PM 39.8204 -77.0784 19° North  Level Estimated
Wed 06:00:00 PM 39.8931 -77.0462 19° North  Level Estimated
Wed 06:01:00 PM 39.9658 -77.0139 19° North  Level Estimated
Wed 06:02:00 PM 40.0385 -76.9815 19° North  Level Estimated
Wed 06:03:00 PM 40.1111 -76.9491 19° North  Level Estimated
Wed 06:04:00 PM 40.1838 -76.9165 19° North  Level Estimated
Wed 06:05:00 PM 40.2564 -76.8840 19° North  Level Estimated
Wed 06:06:00 PM 40.3291 -76.8513 19° North  Level Estimated
Wed 06:07:00 PM 40.4017 -76.8186 19° North  Level Estimated
Wed 06:08:00 PM 40.4743 -76.7858 19° North  Level Estimated
Wed 06:09:00 PM 40.5469 -76.7529 19° North  Level Estimated
Wed 06:10:00 PM 40.6195 -76.7200 19° North  Level Estimated
Wed 06:11:00 PM 40.6921 -76.6870 19° North  Level Estimated
Wed 06:12:00 PM 40.7647 -76.6539 19° North  Level Estimated
Wed 06:13:00 PM 40.8373 -76.6208 19° North  Level Estimated
Wed 06:14:00 PM 40.9098 -76.5876 19° North  Level Estimated
Wed 06:15:00 PM 40.9824 -76.5543 19° North  Level Estimated
Wed 06:16:00 PM 41.0549 -76.5209 19° North  Level Estimated
Wed 06:17:00 PM 41.1274 -76.4875 19° North  Level Estimated
Wed 06:18:00 PM 41.2000 -76.4540 19° North  Level Estimated
Wed 06:19:00 PM 41.2725 -76.4204 19° North  Level Estimated
Wed 06:20:00 PM 41.3450 -76.3867 19° North  Level Estimated
Wed 06:21:00 PM 41.4175 -76.3530 19° North  Level Estimated
Wed 06:22:00 PM 41.4899 -76.3192 19° North  Level Estimated
Wed 06:23:00 PM 41.5624 -76.2853 19° North  Level Estimated
Wed 06:24:00 PM 41.6349 -76.2513 19° North  Level Estimated
Wed 06:25:00 PM 41.7073 -76.2173 19° North  Level Estimated
Wed 06:26:00 PM 41.7798 -76.1832 19° North  Level Estimated
Wed 06:27:00 PM 41.8522 -76.1490 19° North  Level Estimated
Wed 06:28:00 PM 41.9246 -76.1147 19° North  Level Estimated
Wed 06:29:00 PM 41.9970 -76.0804 19° North  Level Estimated
Wed 06:30:00 PM 42.0694 -76.0459 19° North  Level Estimated
Wed 06:31:00 PM 42.1418 -76.0114 19° North  Level Estimated
Wed 06:32:00 PM 42.2084 -75.9796 19° North  Level Estimated
Wed 06:33:00 PM 42.2084 -75.9796 35° Northeast  Level Estimated
Wed 06:34:00 PM 42.2084 -75.9796 35° Northeast  Level Estimated
Wed 06:35:00 PM 42.2084 -75.9796 35° Northeast  Level Estimated
Wed 06:36:00 PM 42.2084 -75.9796 35° Northeast  Level Estimated
Wed 06:37:00 PM 42.2084 -75.9796 35° Northeast  Level Estimated
Wed 06:38:00 PM 42.2084 -75.9796 35° Northeast  Level Estimated
Wed 06:39:00 PM 42.2084 -75.9796 35° Northeast  Level Estimated
Wed 06:40:00 PM 42.2084 -75.9796 35° Northeast  Level Estimated
Wed 06:41:00 PM 42.2084 -75.9796 35° Northeast  Level Estimated
Wed 06:42:00 PM 42.2084 -75.9796 35° Northeast  Level Estimated
Wed 06:43:00 PM 42.2084 -75.9796 35° Northeast  Level Estimated
Wed 06:44:00 PM 42.2084 -75.9796 35° Northeast  Level Estimated
Wed 06:45:00 PM 42.2084 -75.9796 35° Northeast  Level Estimated
Wed 06:46:00 PM 42.2084 -75.9796 35° Northeast  Level Estimated
Wed 06:47:00 PM 42.2084 -75.9796 35° Northeast  Level Estimated
Wed 06:48:00 PM 42.2084 -75.9796 35° Northeast  Level Estimated

Login

Don't have an account? Register now (free) for customized features, flight alerts, and more!